DateTimeUTC,F1_A11,F1_S11,BsB_S11,BsG_S11,BsR_S11,BbsB_S11,BbsG_S11,BbsR_S11,BaB_A11,BaG_A11,BaR_A11,Tu_S11,T_S11,Uu_S11,U_S11,P_S11,T1_A11
2021-03-11T06:00:00Z,00000200,21000000,,,,,,,-000.25,-000.08,-000.58,17.0,24.5,,00.0,0638.5,31.0
2021-03-11T06:01:00Z,00000200,21000000,,,,,,,-000.17,-000.65,-000.28,17.0,24.6,,00.0,0638.5,30.9
2021-03-11T06:02:00Z,00000200,21000000,,,,,,,-000.10,0000.20,0000.13,17.0,24.6,,00.0,0638.5,30.9
2021-03-11T06:03:00Z,00000200,61000000,,,,,,,0000.32,0000.45,-000.04,17.0,24.6,,00.0,0638.5,30.9
2021-03-11T06:04:00Z,00000200,41000000,0002.48,0001.73,0001.01,-000.14,0000.51,0000.14,0001.06,0000.77,0000.73,17.1,24.4,,00.0,0639.3,30.9
2021-03-11T06:05:00Z,00000200,01000000,0003.11,0001.62,0000.77,0000.37,0000.43,0000.02,0000.67,0000.89,0000.69,17.1,24.3,,00.0,0639.4,30.9
2021-03-11T06:06:00Z,00000200,01000000,0002.09,0001.75,0001.05,0000.25,0000.26,0000.11,0001.03,0000.51,0000.57,17.0,24.3,,00.0,0639.4,30.9
2021-03-11T06:07:00Z,00000200,01000000,0002.75,0001.78,0000.79,0000.34,0000.35,0000.17,0001.18,0000.91,0000.62,17.0,24.2,,00.0,0639.4,30.9
2021-03-11T06:08:00Z,00000200,01000000,0002.69,0001.86,0000.93,0000.24,0000.45,0000.11,0001.08,0000.80,0000.94,16.9,24.2,,00.0,0639.4,30.9
2021-03-11T06:09:00Z,00000200,01000000,0002.71,0001.89,0000.67,0000.15,0000.44,0000.27,0000.60,0001.04,0000.59,16.8,24.1,,00.0,0639.4,30.9
2021-03-11T06:10:00Z,00000200,01000000,0002.58,0001.52,0001.02,0000.33,0000.70,0000.17,0001.10,0000.78,0000.51,16.8,24.1,,00.0,0639.3,30.9
2021-03-11T06:11:00Z,00000200,01000000,0002.96,0001.72,0000.70,0000.35,0000.39,0000.25,0001.02,0000.83,0000.50,16.7,24.1,,00.0,0639.4,30.9
2021-03-11T06:12:00Z,00000200,01000000,0002.54,0001.43,0000.76,0000.54,0000.43,0000.39,0000.75,0000.47,0000.47,16.7,24.0,,00.0,0639.4,30.8
2021-03-11T06:13:00Z,00000200,01000000,0003.18,0001.61,0000.80,0000.39,0000.54,0000.01,0001.00,0000.98,0000.60,16.6,24.0,,00.0,0639.4,30.8
2021-03-11T06:14:00Z,00000200,01000000,0002.10,0001.50,0000.61,0000.02,0000.38,-000.22,0000.91,0000.95,0000.73,16.7,24.0,,00.0,0639.4,30.9
2021-03-11T06:15:00Z,00000200,01000000,0002.92,0001.63,0000.72,0000.21,0000.50,-000.02,0000.83,0000.85,0000.64,16.7,24.0,,00.0,0639.4,30.9
2021-03-11T06:16:00Z,00000200,01000000,0002.72,0001.81,0001.09,0000.09,0000.33,-000.02,0000.59,0000.61,0000.47,16.8,24.0,,00.0,0639.4,30.9
2021-03-11T06:17:00Z,00000200,01000000,0002.18,0002.13,0000.92,-000.12,0000.45,0000.22,0001.07,0000.92,0000.61,16.9,24.0,,00.0,0639.4,30.9
2021-03-11T06:18:00Z,00000200,01000000,0002.91,0001.84,0001.09,0000.29,0000.41,0000.04,0000.95,0000.83,0000.56,16.9,24.1,,00.0,0639.4,30.9
2021-03-11T06:19:00Z,00000200,01000000,0002.71,0001.57,0000.84,0000.39,0000.29,0000.20,0001.11,0000.81,0000.84,17.0,24.1,,00.0,0639.4,30.9
2021-03-11T06:20:00Z,00000200,01000000,0002.35,0001.57,0000.73,0000.44,0000.33,0000.20,0001.28,0001.02,0000.41,17.1,24.1,,00.0,0639.4,30.9
2021-03-11T06:21:00Z,00000200,01000000,0002.22,0001.57,0000.73,0000.61,0000.25,0000.08,0000.78,0001.37,0000.94,17.1,24.2,,00.0,0639.4,31.0
2021-03-11T06:22:00Z,00000200,01000000,0002.41,0001.71,0001.04,0000.59,0000.28,0000.43,0001.00,0000.63,0000.73,17.2,24.2,,00.0,0639.4,31.0
2021-03-11T06:23:00Z,00000200,01000000,0003.11,0001.14,0000.92,0000.64,0000.67,0000.32,0001.28,0001.08,0001.06,17.2,24.2,,00.0,0639.4,31.0
2021-03-11T06:24:00Z,00000200,01000000,0003.06,0001.78,0001.00,0000.18,0000.52,0000.10,0000.96,0000.83,0000.19,17.2,24.2,,00.0,0639.4,30.9
2021-03-11T06:25:00Z,00000200,01000000,0002.58,0001.49,0000.82,0000.16,0000.53,0000.02,0000.89,0000.73,0000.69,17.1,24.2,,00.0,0639.4,30.9
2021-03-11T06:26:00Z,00000200,01000000,0001.98,0001.63,0000.82,0000.52,0000.47,0000.02,0000.80,0000.79,0000.47,17.1,24.2,,00.0,0639.4,30.9
2021-03-11T06:27:00Z,00000200,01000000,0002.66,0001.63,0000.84,0000.39,0000.49,0000.25,0000.81,0000.62,0000.78,17.0,24.2,,00.0,0639.4,30.9
2021-03-11T06:28:00Z,00000200,01000000,0002.41,0001.89,0001.20,0000.80,0000.38,0000.31,0001.18,0001.21,0000.65,17.0,24.1,,00.0,0639.4,30.9
2021-03-11T06:29:00Z,00000200,01000000,0002.93,0001.81,0000.87,0000.95,0000.33,0000.16,0001.13,0001.05,0000.59,17.0,24.1,,00.0,0639.3,30.9
2021-03-11T06:30:00Z,00000200,01000000,0003.24,0001.76,0001.14,0000.76,0000.48,0000.24,0001.28,0001.06,0000.82,17.1,24.1,,00.0,0639.4,30.9
2021-03-11T06:31:00Z,00000200,01000000,0002.82,0001.98,0000.69,0000.92,0000.37,-000.03,0000.92,0000.61,0000.74,17.1,24.1,,00.0,0639.4,30.9
2021-03-11T06:32:00Z,00000200,01000000,0003.14,0002.05,0001.14,0000.26,0000.34,0000.05,0001.44,0001.44,0000.57,17.2,24.2,,00.0,0639.3,30.9
2021-03-11T06:33:00Z,00000200,01000000,0003.46,0001.73,0000.91,-000.06,0000.37,0000.15,0000.72,0000.72,0001.06,17.2,24.2,,00.0,0639.4,31.0
2021-03-11T06:34:00Z,00000200,01000000,0002.76,0001.74,0000.91,0000.28,0000.45,0000.34,0000.80,0000.91,0000.53,17.3,24.2,,00.0,0639.4,31.0
2021-03-11T06:35:00Z,00000200,01000000,0003.12,0002.03,0001.00,0000.47,0000.35,0000.10,0001.33,0001.05,0000.69,17.3,24.3,,00.0,0639.4,31.0
2021-03-11T06:36:00Z,00000200,01000000,0003.33,0001.73,0000.83,0000.27,0000.50,-000.10,0001.42,0001.44,0001.14,17.4,24.3,,00.0,0639.4,31.0
2021-03-11T06:37:00Z,00000200,01000000,0002.86,0001.60,0000.84,0000.38,0000.30,0000.33,0001.16,0000.85,0000.51,17.4,24.3,,00.0,0639.4,31.0
2021-03-11T06:38:00Z,00000200,01000000,0003.02,0001.84,0001.06,-000.09,0000.20,0000.19,0001.01,0001.34,0000.78,17.5,24.4,,00.0,0639.4,31.0
2021-03-11T06:39:00Z,00000200,01000000,0002.70,0001.94,0001.24,0000.21,0000.51,0000.13,0001.36,0000.69,0000.94,17.5,24.4,,00.0,0639.4,31.0
2021-03-11T06:40:00Z,00000200,01000000,0002.64,0001.66,0000.93,0000.60,0000.28,0000.15,0000.88,0001.17,0000.47,17.6,24.4,,00.0,0639.4,31.0
2021-03-11T06:41:00Z,00000200,01000000,0002.55,0001.94,0001.02,0000.49,0000.57,0000.27,0000.83,0000.72,0000.33,17.5,24.4,,00.0,0639.4,30.9
2021-03-11T06:42:00Z,00000200,01000000,0003.26,0002.00,0001.11,0000.59,0000.34,0000.26,0000.77,0000.16,0000.80,17.4,24.4,,00.0,0639.4,30.9
2021-03-11T06:43:00Z,00000200,01000000,0003.44,0001.76,0001.11,0000.14,0000.44,0000.04,0000.90,0000.86,0000.66,17.4,24.4,,00.0,0639.4,30.9
2021-03-11T06:44:00Z,00000200,01000000,0002.75,0002.07,0001.32,0000.34,0000.49,0000.13,0000.78,0000.49,0000.48,17.4,24.3,,00.0,0639.4,30.9
2021-03-11T06:45:00Z,00000200,01000000,0003.18,0001.63,0001.39,0000.14,0000.35,0000.37,0000.97,0001.36,0000.73,17.4,24.3,,00.0,0639.4,31.0
2021-03-11T06:46:00Z,00000200,01000000,0003.11,0001.78,0001.23,0000.34,0000.60,0000.20,0000.93,0000.54,0000.38,17.5,24.4,,00.0,0639.5,31.0
2021-03-11T06:47:00Z,00000200,01000000,0002.75,0001.93,0001.16,0000.37,0000.77,0000.37,0000.51,0000.75,0000.74,17.5,24.4,,00.0,0639.5,31.0
2021-03-11T06:48:00Z,00000200,01000000,0003.30,0001.77,0000.86,0000.10,0000.53,0000.01,0001.17,0000.77,0000.49,17.5,24.4,,00.0,0639.4,31.0
2021-03-11T06:49:00Z,00000200,01000000,0003.01,0002.18,0001.27,-000.09,0000.32,0000.23,0001.22,0001.23,0000.67,17.4,24.4,,00.0,0639.4,31.0
2021-03-11T06:50:00Z,00000200,01000000,0003.69,0001.89,0001.07,0000.13,0000.53,0000.26,0000.80,0000.88,0000.52,17.4,24.4,,00.0,0639.4,30.9
2021-03-11T06:51:00Z,00000200,01000000,0003.13,0001.63,0000.98,0000.45,0000.31,0000.24,0001.33,0000.77,0000.84,17.3,24.4,,00.0,0639.4,30.9
2021-03-11T06:52:00Z,00000200,01000000,0003.54,0001.87,0000.99,0000.50,0000.43,0000.17,0001.02,0001.43,0001.07,17.2,24.3,,00.0,0639.4,30.9
2021-03-11T06:53:00Z,00000200,01000000,0002.66,0001.72,0000.81,0000.62,0000.56,0000.04,0000.88,0000.37,0000.28,17.2,24.3,,00.0,0639.4,30.9
2021-03-11T06:54:00Z,00000200,01000000,0003.75,0001.77,0000.86,0000.54,0000.34,0000.15,0000.82,0000.74,0000.63,17.1,24.2,,00.0,0639.4,30.9
2021-03-11T06:55:00Z,00000200,01000000,0002.55,0001.83,0001.26,0000.26,0000.34,0000.20,0001.12,0001.10,0000.62,17.0,24.2,,00.0,0639.4,30.9
2021-03-11T06:56:00Z,00000200,01000000,0002.96,0002.03,0001.00,0000.35,0000.67,0000.29,0000.89,0000.82,0000.71,16.9,24.2,,00.0,0639.4,30.9
2021-03-11T06:57:00Z,00000200,41000000,,,,,,,0001.27,0000.83,0000.39,16.9,24.2,,00.0,0639.4,30.9
2021-03-11T06:58:00Z,00000200,61000000,,,,,,,-000.36,-000.14,0000.39,16.5,24.3,,00.0,0638.4,30.9
2021-03-11T06:59:00Z,00000200,21000000,,,,,,,-000.34,-000.07,-000.37,16.5,24.4,,00.0,0638.3,30.9
